[[{"header":{"parameterUnit":"m.s-1","parameterCategory":1,"la1":30.2991,"la2":30.254,"lo1":-89.0895,"lo2":-89.0444,"dy":0.0017,"dx":0.0017,"nx":28,"ny":28,"refTime":"2025-12-02T03:00:00:Z","depth":0,"parameterNumber":2,"parameterNumberName":"U-component_of_WINDS"},"data":[0,0,0,0,0,0,0,0,0,0,0,0,0,0,0,0,0,0,0,0,0,0,0,0,0,0,0,0,0,0,0,0,0,0,0,0,0,0,0,0,0,0,0,0,0,0,0,0,0,0,0,0,0,0,0,0,0,0,-0.6722,-0.6722,0,-0.6737,-0.6738,-0.6738,-0.6724,-0.6724,-0.6723,-0.6722,-0.6739,-0.674,-0.6741,0,0,0,0,0,0,0,0,0,0,0,0,0,-0.668,-0.668,-0.6722,-0.6722,-0.6722,-0.6737,-0.6738,-0.6738,-0.6724,-0.6724,-0.6723,-0.6722,-0.6739,-0.674,-0.6741,0,0,0,0,0,0,0,0,0,0,0,0,0,-0.6697,-0.6681,-0.6721,-0.6717,-0.6717,-0.6737,-0.6738,-0.6738,-0.6724,-0.6724,-0.6723,-0.6722,-0.6738,-0.674,-0.6741,-0.6767,0,0,-0.6746,-0.6746,0,0,0,0,0,0,0,0,-0.6696,-0.6698,-0.6717,-0.6717,-0.6717,-0.6728,-0.6729,-0.6748,-0.6725,-0.6722,-0.6722,-0.6721,-0.6736,-0.6738,-0.6743,-0.6768,-0.6769,-0.6746,-0.6747,-0.6747,-0.6748,0,0,0,0,0,0,0,-0.6695,-0.6698,-0.6728,-0.6718,-0.6718,-0.6714,-0.6716,-0.6732,-0.6733,-0.6722,-0.6721,-0.6723,-0.6736,-0.6741,-0.6743,-0.6769,-0.6746,-0.6747,-0.6748,-0.6749,-0.6816,-0.6816,0,0,0,0,0,0,-0.6694,-0.6697,-0.6727,-0.6728,-0.6704,-0.6716,-0.6717,-0.6725,-0.6733,-0.6734,-0.6723,-0.6722,-0.6739,-0.6741,-0.6743,-0.6774,-0.6747,-0.6749,-0.675,-0.6815,-0.6816,-0.6817,0,0,0,0,0,0,-0.6693,-0.6697,-0.6727,-0.6712,-0.6716,-0.6717,-0.6726,-0.6726,-0.6731,-0.6734,-0.6735,-0.6729,-0.6739,-0.6741,-0.6761,-0.6774,-0.6749,-0.6751,-0.6814,-0.6815,-0.6816,-0.6835,0,0,0,0,0,0,-0.6692,-0.6697,-0.6707,-0.6713,-0.6717,-0.6744,-0.6727,-0.6727,-0.6734,-0.6732,-0.6739,-0.674,-0.6738,-0.6759,-0.6763,-0.6776,-0.6752,-0.6812,-0.6814,-0.6816,-0.6834,-0.6837,-0.684,0,0,0,0,0,-0.669,-0.6712,-0.6707,-0.6711,-0.6729,-0.6745,-0.6747,-0.6745,-0.6735,-0.6745,-0.6747,-0.674,-0.6772,-0.6761,-0.6765,-0.6779,-0.6812,-0.6814,-0.6816,-0.6832,-0.6837,-0.684,0,0,0,0,0,0,-0.6708,-0.6712,-0.6707,-0.6731,-0.6738,-0.6743,-0.6755,-0.675,-0.676,-0.6758,-0.6754,-0.6756,-0.6777,-0.678,-0.6767,-0.6804,-0.679,-0.6793,-0.6801,-0.6806,-0.6809,-0.6808,-0.6753,0,0,0,0,0,-0.6714,-0.6727,-0.673,-0.6751,-0.6754,-0.6754,-0.6761,-0.6758,-0.6765,-0.6768,-0.6771,-0.6778,-0.679,-0.6798,-0.6809,-0.6834,-0.6835,-0.6845,-0.6848,-0.6851,-0.6854,-0.6867,-0.6871,-0.6824,-0.6824,-0.6823,0,0,-0.6728,-0.6732,-0.674,-0.6754,-0.6759,-0.6772,-0.6757,-0.6771,-0.6781,-0.677,-0.6789,-0.6792,-0.6799,-0.6822,-0.6832,-0.6825,-0.6867,-0.6854,-0.6856,-0.6857,-0.6869,-0.6874,-0.6878,-0.6825,-0.6825,-0.6824,0,0,-0.6759,-0.6763,-0.6781,-0.6786,-0.6793,-0.6793,-0.6797,-0.6803,-0.6804,-0.6823,-0.6815,-0.6826,-0.6846,-0.6852,-0.6858,-0.689,-0.6884,-0.6894,-0.6911,-0.6924,-0.6928,-0.6931,-0.6943,-0.6947,-0.6896,-0.6896,-0.6896,0,-0.6775,-0.6794,-0.6791,-0.6806,-0.6812,-0.6802,-0.682,-0.6825,-0.6835,-0.684,-0.6832,-0.6857,-0.6861,-0.6885,-0.6892,-0.6897,-0.6902,-0.6893,-0.6928,-0.6931,-0.6934,-0.6945,-0.6949,-0.6897,-0.6897,-0.6897,-0.6897,0,-0.6814,-0.6827,-0.684,-0.685,-0.6858,-0.6874,-0.6873,-0.6881,-0.6877,-0.6878,-0.6897,-0.6901,-0.6913,-0.6918,-0.6915,-0.6941,-0.6936,-0.6928,-0.6914,-0.694,-0.695,-0.6954,-0.6899,-0.6899,-0.6898,-0.6898,0,0,-0.6858,-0.6864,-0.6869,-0.6873,-0.688,-0.6891,-0.6906,-0.6917,-0.6924,-0.6931,-0.6944,-0.6961,-0.6953,-0.696,-0.6957,-0.6968,-0.6993,-0.6958,-0.6958,-0.6964,-0.7021,-0.7028,-0.7033,-0.6988,-0.6989,-0.699,-0.7021,0,-0.6889,-0.6916,-0.6912,-0.6938,-0.695,-0.6941,-0.6954,-0.696,-0.696,-0.6971,-0.6971,-0.6983,-0.6972,-0.6976,-0.6986,-0.6988,-0.7004,-0.6985,-0.7,-0.7001,-0.6999,-0.7038,-0.7045,-0.7074,-0.7025,-0.7025,-0.7026,0,-0.693,-0.6939,-0.6965,-0.697,-0.6975,-0.6987,-0.6996,-0.7006,-0.7012,-0.7012,-0.7018,-0.7013,-0.7028,-0.7014,-0.7034,-0.7021,-0.7027,-0.7029,-0.703,-0.7031,-0.7015,-0.7041,-0.7083,-0.7088,-0.7032,-0.7032,-0.7031,0,-0.6959,-0.6977,-0.6996,-0.6999,-0.7005,-0.7014,-0.7016,-0.7021,-0.7028,-0.7036,-0.704,-0.705,-0.7055,-0.7063,-0.7061,-0.705,-0.7082,-0.7067,-0.7082,-0.7082,-0.7089,-0.7089,-0.7134,-0.7093,-0.7093,-0.7093,-0.7093,0,-0.6996,-0.7012,-0.7009,-0.702,-0.7038,-0.7034,-0.7052,-0.7053,-0.7058,-0.7069,-0.7061,-0.7072,-0.7068,-0.7078,-0.7076,-0.7094,-0.7096,-0.7096,-0.7096,-0.7097,-0.7097,-0.7101,-0.7099,-0.7094,-0.7093,-0.7093,-0.7093,0,-0.7032,-0.703,-0.7049,-0.7052,-0.7053,-0.7067,-0.707,-0.708,-0.7079,-0.7094,-0.7097,-0.7096,-0.7108,-0.7106,-0.7119,-0.7118,-0.7139,-0.7136,-0.7138,-0.7137,-0.7152,-0.715,-0.7201,-0.7207,-0.7162,-0.7162,-0.7163,0,-0.7055,-0.7068,-0.7072,-0.7079,-0.7082,-0.7093,-0.7099,-0.7095,-0.7102,-0.7109,-0.7119,-0.713,-0.7138,-0.7157,-0.7158,-0.7168,-0.7165,-0.7182,-0.7166,-0.7167,-0.7165,-0.7165,-0.7166,-0.7185,-0.7186,-0.7186,-0.7186,0,-0.7097,-0.7095,-0.7104,-0.7113,-0.7121,-0.7128,-0.7134,-0.714,-0.7136,-0.7145,-0.7156,-0.7163,-0.7176,-0.7187,-0.7196,-0.7198,-0.7192,-0.7191,-0.7195,-0.7197,-0.7197,-0.7197,-0.7146,-0.719,-0.719,-0.7189,-0.7189,-0.7189,-0.7127,-0.7138,-0.7142,-0.7153,-0.7157,-0.7163,-0.7172,-0.7173,-0.7182,-0.7192,-0.7189,-0.7202,-0.7207,-0.7218,-0.7222,-0.7232,-0.7226,-0.7232,-0.7233,-0.7235,-0.7236,-0.7195,-0.7234,-0.7234,-0.7233,-0.7233,-0.7233,0,-0.7169,-0.7171,-0.718,-0.7189,-0.7197,-0.719,-0.7196,-0.7203,-0.7215,-0.722,-0.7228,-0.7241,-0.7251,-0.7253,-0.7262,-0.727,-0.7267,-0.7273,-0.7272,-0.7273,-0.7242,-0.7237,-0.7275,-0.7275,-0.7275,-0.7275,-0.7275,-0.7275,-0.7191,-0.7208,-0.7207,-0.7226,-0.7228,-0.724,-0.7245,-0.725,-0.7253,-0.7268,-0.7277,-0.7277,-0.728,-0.729,-0.7299,-0.7299,-0.7303,-0.731,-0.7308,-0.7279,-0.7275,-0.7271,-0.7267,-0.731,-0.731,-0.7339,-0.7339,-0.7339]},{"header":{"parameterUnit":"m.s-1","parameterCategory":1,"la1":30.2991,"la2":30.254,"lo1":-89.0895,"lo2":-89.0444,"dy":0.0017,"dx":0.0017,"nx":28,"ny":28,"refTime":"2025-12-02T03:00:00:Z","depth":0,"parameterNumber":3,"parameterNumberName":"V-component_of_WINDS"},"data":[0,0,0,0,0,0,0,0,0,0,0,0,0,0,0,0,0,0,0,0,0,0,0,0,0,0,0,0,0,0,0,0,0,0,0,0,0,0,0,0,0,0,0,0,0,0,0,0,0,0,0,0,0,0,0,0,0,0,-5.7338,-5.7339,0,-5.7438,-5.7439,-5.744,-5.7405,-5.7403,-5.7401,-5.7399,-5.7495,-5.7499,-5.7504,0,0,0,0,0,0,0,0,0,0,0,0,0,-5.7112,-5.7116,-5.7338,-5.734,-5.7341,-5.7438,-5.7439,-5.744,-5.7405,-5.7403,-5.74,-5.7398,-5.7493,-5.7499,-5.7504,0,0,0,0,0,0,0,0,0,0,0,0,0,-5.721,-5.7117,-5.7338,-5.7335,-5.7336,-5.7438,-5.7439,-5.7441,-5.7406,-5.7403,-5.7399,-5.7396,-5.7491,-5.7498,-5.7505,-5.7614,0,0,-5.7526,-5.7529,0,0,0,0,0,0,0,0,-5.7205,-5.7219,-5.7334,-5.7336,-5.7337,-5.7406,-5.7394,-5.7499,-5.7407,-5.7379,-5.7399,-5.7395,-5.7467,-5.7476,-5.7502,-5.7618,-5.7622,-5.7527,-5.7531,-5.7534,-5.7536,0,0,0,0,0,0,0,-5.7198,-5.7214,-5.7377,-5.7336,-5.7337,-5.7327,-5.7337,-5.7414,-5.744,-5.7381,-5.7379,-5.7392,-5.7467,-5.7495,-5.7504,-5.7624,-5.7526,-5.7533,-5.7537,-5.754,-5.7833,-5.7836,0,0,0,0,0,0,-5.7191,-5.7209,-5.7374,-5.738,-5.7261,-5.7334,-5.7345,-5.7387,-5.744,-5.7445,-5.7394,-5.739,-5.7485,-5.7496,-5.7507,-5.7637,-5.7534,-5.754,-5.7544,-5.7829,-5.7834,-5.7838,0,0,0,0,0,0,-5.7187,-5.7207,-5.737,-5.7294,-5.7314,-5.7341,-5.7388,-5.7391,-5.7418,-5.7449,-5.7453,-5.7419,-5.7483,-5.7497,-5.7588,-5.764,-5.7543,-5.755,-5.7825,-5.7831,-5.7836,-5.7899,0,0,0,0,0,0,-5.718,-5.7205,-5.7248,-5.7295,-5.7318,-5.7451,-5.7391,-5.7395,-5.7431,-5.7426,-5.7473,-5.7478,-5.7481,-5.7578,-5.7595,-5.7648,-5.7555,-5.782,-5.7828,-5.7834,-5.7892,-5.7906,-5.7918,0,0,0,0,0,-5.7172,-5.7261,-5.7251,-5.7271,-5.7373,-5.7454,-5.7467,-5.7472,-5.7436,-5.7478,-5.7498,-5.7476,-5.7632,-5.7587,-5.7606,-5.7662,-5.7817,-5.7826,-5.7834,-5.7887,-5.7903,-5.7917,0,0,0,0,0,0,-5.7217,-5.7267,-5.7256,-5.7363,-5.7405,-5.7448,-5.7502,-5.7489,-5.7541,-5.7533,-5.7535,-5.7545,-5.7638,-5.7659,-5.7608,-5.777,-5.7719,-5.7731,-5.7753,-5.7769,-5.7781,-5.7774,-5.7561,0,0,0,0,0,-5.724,-5.7303,-5.7343,-5.7433,-5.7455,-5.7475,-5.7511,-5.751,-5.7553,-5.757,-5.7596,-5.7637,-5.7695,-5.7733,-5.7788,-5.7895,-5.7904,-5.7943,-5.7956,-5.7966,-5.7976,-5.8034,-5.8051,-5.7865,-5.7865,-5.7864,0,0,-5.7286,-5.7321,-5.7361,-5.7443,-5.7475,-5.754,-5.749,-5.756,-5.7607,-5.758,-5.7667,-5.7688,-5.7733,-5.7833,-5.7877,-5.7853,-5.803,-5.7977,-5.7984,-5.7989,-5.8044,-5.8062,-5.8077,-5.787,-5.7869,-5.7868,0,0,-5.7404,-5.7438,-5.7516,-5.755,-5.7601,-5.7614,-5.7633,-5.7679,-5.7692,-5.778,-5.7761,-5.7816,-5.7916,-5.7949,-5.7979,-5.8109,-5.8091,-5.8127,-5.8193,-5.8249,-5.8263,-5.8276,-5.8322,-5.8339,-5.8137,-5.8137,-5.8137,0,-5.7455,-5.7553,-5.7558,-5.763,-5.7666,-5.7646,-5.7725,-5.7757,-5.7822,-5.7846,-5.7818,-5.7944,-5.7973,-5.8079,-5.8111,-5.8136,-5.8156,-5.8121,-5.8261,-5.8274,-5.8286,-5.833,-5.8347,-5.8141,-5.8141,-5.8141,-5.814,0,-5.7613,-5.7681,-5.7738,-5.7804,-5.7846,-5.7921,-5.7935,-5.7977,-5.7973,-5.7989,-5.8078,-5.8112,-5.8174,-5.8199,-5.8195,-5.8304,-5.8288,-5.8261,-5.8209,-5.8308,-5.8349,-5.8366,-5.8147,-5.8146,-5.8145,-5.8144,0,0,-5.7761,-5.7829,-5.785,-5.7879,-5.7934,-5.7986,-5.8059,-5.8121,-5.8156,-5.8202,-5.8262,-5.8348,-5.8323,-5.8357,-5.8356,-5.8406,-5.8506,-5.8372,-5.8373,-5.8395,-5.8628,-5.8647,-5.8667,-5.8494,-5.8497,-5.85,-5.8624,0,-5.7883,-5.8014,-5.8021,-5.8139,-5.8201,-5.8184,-5.8247,-5.8286,-5.8302,-5.8356,-5.8372,-5.8433,-5.8396,-5.8417,-5.8465,-5.8484,-5.8552,-5.8475,-5.8549,-5.8551,-5.8538,-5.8688,-5.871,-5.8825,-5.864,-5.8642,-5.8644,0,-5.8042,-5.8095,-5.822,-5.8266,-5.8292,-5.835,-5.8407,-5.8459,-5.8502,-5.851,-5.8549,-5.8541,-5.8614,-5.8561,-5.8661,-5.8608,-5.8638,-5.8652,-5.8657,-5.8663,-5.8603,-5.8698,-5.8861,-5.8879,-5.867,-5.8668,-5.8666,0,-5.8137,-5.8239,-5.8327,-5.8353,-5.8409,-5.8449,-5.8474,-5.8514,-5.8551,-5.86,-5.8624,-5.868,-5.8711,-5.8754,-5.8761,-5.8722,-5.8861,-5.8808,-5.8868,-5.8868,-5.8898,-5.8896,-5.9068,-5.8918,-5.8918,-5.8918,-5.8917,0,-5.8272,-5.835,-5.8371,-5.8425,-5.851,-5.8516,-5.86,-5.8621,-5.8657,-5.8714,-5.8701,-5.8754,-5.876,-5.8814,-5.882,-5.8901,-5.8915,-5.8922,-5.8923,-5.8923,-5.8923,-5.8943,-5.8935,-5.8922,-5.8921,-5.892,-5.892,0,-5.8393,-5.841,-5.8505,-5.8551,-5.8564,-5.8624,-5.8662,-5.8713,-5.8728,-5.8799,-5.8816,-5.8839,-5.8902,-5.8913,-5.8987,-5.8991,-5.9087,-5.908,-5.9074,-5.9072,-5.9131,-5.9125,-5.9322,-5.9348,-5.9182,-5.9184,-5.9185,0,-5.8478,-5.8537,-5.8589,-5.8627,-5.8654,-5.8715,-5.8753,-5.8761,-5.8801,-5.8855,-5.8899,-5.8961,-5.9011,-5.9112,-5.9133,-5.9189,-5.9182,-5.9248,-5.9191,-5.9189,-5.9183,-5.9179,-5.9184,-5.9258,-5.926,-5.9261,-5.9263,0,-5.8626,-5.8632,-5.8689,-5.8749,-5.8795,-5.8842,-5.8886,-5.8917,-5.893,-5.8975,-5.9041,-5.908,-5.9155,-5.9217,-5.9272,-5.9295,-5.9281,-5.9281,-5.9297,-5.9298,-5.9292,-5.9295,-5.9103,-5.9276,-5.9274,-5.9273,-5.9273,-5.9272,-5.8731,-5.8783,-5.8828,-5.8891,-5.8926,-5.8967,-5.9018,-5.9039,-5.9095,-5.9159,-5.9159,-5.923,-5.9271,-5.9345,-5.9371,-5.9426,-5.9405,-5.9429,-5.9435,-5.9441,-5.9446,-5.9284,-5.9436,-5.9435,-5.9435,-5.9435,-5.9434,0,-5.8879,-5.8907,-5.8965,-5.9029,-5.9078,-5.9062,-5.911,-5.9152,-5.9216,-5.9256,-5.9306,-5.938,-5.9439,-5.9466,-5.9524,-5.9562,-5.9557,-5.9577,-5.9574,-5.9579,-5.9462,-5.9441,-5.958,-5.958,-5.958,-5.958,-5.958,-5.958,-5.8961,-5.9048,-5.9059,-5.9162,-5.9189,-5.9261,-5.9289,-5.9327,-5.9359,-5.9444,-5.9494,-5.9512,-5.9546,-5.9606,-5.9659,-5.9665,-5.9687,-5.971,-5.9713,-5.9602,-5.9588,-5.9573,-5.9554,-5.9715,-5.9715,-5.9826,-5.9827,-5.9827]}]]